Starlink 2188

operational
NORAD ID: 48563 Int'l Des: 2021-041 Owner: SPXS Country: US Constellation: starlink
LEOCIRCULARSTARLINK_TYPE

Starlink 2188について

説明を読み込み中...

リアルタイム位置

3D地球を読み込み中...

次回通過

高度履歴

Altitude vs Time

uPlot chart will show altitude changes over time

軌道要素

1 48563U 21041L 25306.38109580 .00009019 00000-0 62340-3 0 9991
2 48563 53.0555 343.1274 0001699 89.4237 270.6946 15.06411712246018
Epoch: Nov 2, 2025 • Age: 10 hours

現在のステータス

高度 554.7 km
速度 7.58 km/s
衛星直下点 -24.22°S, 155.97°W
打ち上げ日 May 15, 2021
運用期間 4.4 years
タイプ internet

技術仕様

分類 Payload
質量 260.00 kg
乾燥質量 248.00 kg
総質量 260.00 kg
長さ 0.20 m
直径 2.80 m
スパン 9.00 m
形状 Box + pan
製造者 SPXS
バスタイプ Starlink
フェーズステータス In Orbit
所有者/国 SPXS/US

大規模コンステレーション

Loading constellations...